MPEC 2000-V11: 2000 UY33

The following Minor Planet Electronic Circular may be linked-to from your own Web pages, but must not otherwise be redistributed electronically.


Read MPEC 2000-V10 Read MPEC 2000-V12


M.P.E.C. 2000-V11                                Issued 2000 Nov. 3, 13:34 UT

     The Minor Planet Electronic Circulars contain information on unusual
         minor planets and routine data on comets.  They are published
   on behalf of Commission 20 of the International Astronomical Union by the
          Minor Planet Center, Smithsonian Astrophysical Observatory,
                          Cambridge, MA 02138, U.S.A.

             Prepared using the Tamkin Foundation Computer Network

                              MPC@CFA.HARVARD.EDU
          URL http://cfa-www.harvard.edu/iau/mpc.html  ISSN 1523-6714

                                   2000 UY33

Observations:
     K00U33Y* C2000 10 31.23342 01 54 14.65 +10 31 45.9          18.6        704
     K00U33Y  C2000 10 31.24741 01 54 06.18 +10 34 06.2          18.6        704
     K00U33Y  C2000 10 31.27561 01 53 49.06 +10 38 47.6          18.9        704
     K00U33Y  C2000 11 01.17496 01 45 06.25 +13 08 02.9          19.0 R      853
     K00U33Y  C2000 11 01.17573 01 45 05.78 +13 08 10.7          18.6 R      853
     K00U33Y fC2000 11 01.17635 01 45 05.40 +13 08 16.8          19.2 R      853
     K00U33Y  C2000 11 01.17952 01 45 03.46 +13 08 48.3          19.0 R      853
     K00U33Y  C2000 11 01.27222 01 44 06.20 +13 24 07.0          18.8        704
     K00U33Y  C2000 11 01.28618 01 43 57.68 +13 26 24.9          18.8        704
     K00U33Y  C2000 11 01.28966 01 43 55.50 +13 26 59.8          19.1        704
     K00U33Y  C2000 11 01.30006 01 43 49.13 +13 28 41.9          18.9        704
     K00U33Y  C2000 11 01.30450 01 43 46.35 +13 29 26.4          19.5        704
     K00U33Y  C2000 11 01.31394 01 43 40.56 +13 30 58.5          18.8        704
     K00U33Y  C2000 11 01.31879 01 43 37.58 +13 31 47.3          19.1        704
     K00U33Y  C2000 11 01.32781 01 43 32.01 +13 33 14.8          19.4        704
     K00U33Y  C2000 11 01.79330 01 39 00.94 +14 49 22.2                      118
     K00U33Y  C2000 11 01.79604 01 38 59.32 +14 49 49.7                      118
     K00U33Y  C2000 11 01.79817 01 38 57.87 +14 50 12.5                      118
     K00U33Y  C2000 11 01.80028 01 38 56.69 +14 50 32.4                      118
     K00U33Y  C2000 11 01.80206 01 38 55.50 +14 50 49.9                      118
     K00U33Y  C2000 11 01.86346 01 38 18.26 +15 00 53.1          18.4 R      046
     K00U33Y  C2000 11 01.86631 01 38 16.53 +15 01 19.8                      046
     K00U33Y  C2000 11 01.86708 01 38 16.16 +15 01 28.2                      046
     K00U33Y  C2000 11 01.86773 01 38 15.75 +15 01 32.3                      046
     K00U33Y  C2000 11 01.86831 01 38 15.45 +15 01 39.0                      046
     K00U33Y  C2000 11 01.86933 01 38 14.57 +15 01 49.9                      046
     K00U33Y  C2000 11 01.87005 01 38 14.33 +15 01 56.7                      046
     K00U33Y  C2000 11 02.14755 01 35 31.36 +15 47 19.5          18.6 R      853
     K00U33Y  C2000 11 02.14823 01 35 30.95 +15 47 26.3          19.2 R      853
     K00U33Y  C2000 11 02.14910 01 35 30.39 +15 47 34.6          19.0 R      853
     K00U33Y  C2000 11 02.20592 01 34 55.00 +15 56 48.4          18.5        704
     K00U33Y  C2000 11 02.21997 01 34 46.30 +15 59 05.0          19.2        704
     K00U33Y  C2000 11 02.23383 01 34 37.66 +16 01 19.7          18.9        704
     K00U33Y  C2000 11 02.24740 01 34 29.26 +16 03 32.0          19.0        704
     K00U33Y  C2000 11 02.26095 01 34 20.88 +16 05 43.2          18.8        704

Observer details:
046 Klet.  Observers M. Tichy, M. Kocer.  0.57-m f/5.2 reflector + CCD.
118 Modra.  Observers L. Kornos, J. Toth.  0.6-m f/5.5 reflector + CCD.
704 Lincoln Laboratory ETS, New Mexico.  Observers M. Blythe, F. Shelly,
    M. Bezpalko, M. Elowitz, R. Huber, L. Manguso.  Measurers J. Stuart,
    R. Sayer, J. B. Evans, H. Viggh.  1.0-m f/2.15 reflector + CCD.
853 Biosphere 2 Observatory.  Observer G. J. Garradd.  0.6-m f/8.1 reflector
    + CCD.

Orbital elements:
2000 UY33
Epoch 2000 Oct. 23.0 TT = JDT 2451840.5                 Spahr
M 280.81871              (2000.0)            P               Q
n   0.82144017     Peri.   78.32099     -0.37319133     -0.88737392
a   1.1291512      Node    37.49014     +0.57825477     -0.45067754
e   0.0554388      Incl.   26.41218     +0.72549958     -0.09724860
P   1.20           H   23.0           G   0.15
From 35 observations 2000 Oct. 31-Nov. 2.

Ephemeris:
2000 UY33                a,e,i = 1.13, 0.06, 26                  q = 1.0666
Date    TT    R. A. (2000) Decl.     Delta      r     Elong.  Phase     V
2000 10 23    03 04.37   -10 04.3    0.141    1.121   151.8    24.8    20.1
2000 10 28    02 24.30   +01 41.9    0.125    1.116   168.0    10.6    19.4
2000 11 02    01 36.95   +15 23.7    0.122    1.112   167.2    11.4    19.4
2000 11 07    00 47.56   +27 39.4    0.133    1.108   149.6    26.9    20.0
2000 11 12    00 02.42   +36 24.3    0.154    1.103   134.8    39.5    20.7
2000 11 17    23 25.35   +41 58.8    0.180    1.099   123.8    48.4    21.3
2000 11 22    22 57.00   +45 29.9    0.211    1.095   115.6    54.4    21.8
2000 11 27    22 36.24   +47 51.0    0.242    1.091   109.4    58.5    22.2
2000 12 02    22 21.43   +49 34.6    0.274    1.088   104.6    61.3    22.6

Timothy B. Spahr             (C) Copyright 2000 MPC           M.P.E.C. 2000-V11

Read MPEC 2000-V10 Read MPEC 2000-V12


Our Web policy. Index to the CBAT/MPC/ICQ pages.

MPC